Location: Ash Swamp
(41.5170°N, 74.6157°W)
Time: 02:12:36
(UTC+00:00)

DELTA 2 R/B (1) - Pass Details

Date: 14 July 2020
Orbit: 790 x 803 km, 39.6° (Epoch: 14 August)

Event Time Altitude Azimuth Distance (km) Brightness Sun altitude
Rises 02:47:27 0° 275° (W) 3,284 7.3 -19.3°
Reaches altitude 10° 02:49:57 10° 272° (W) 2,356 6.5 -19.6°
Maximum altitude 02:55:26 62° 193° (SSW) 892 3.6 -20.2°
Enters shadow 02:57:14 41° 132° (SE) 1,147 3.9 -20.3°
